Regional Weather Roundup
Issued by NWS

Home | Current Version | Previous Version | Graphics & Text | Print | Product List | Glossary On
Versions: 1 2 3 4 5 6 7 8 9 10 11 12 13 14 15 16 17 18 19 20 21 22 23 24 25 26 27 28 29 30 31 32 33 34 35 36 37 38 39 40 41 42 43 44 45 46 47 48 49 50
000
ASUS45 KPSR 010210
RWRAZ

ARIZONA REGIONAL HOURLY WEATHER ROUNDUP
NATIONAL WEATHER SERVICE PHOENIX AZ
700 PM MST THU JUL 31 2014

NOTE: FAIR INDICATES FEW OR NO CLOUDS BELOW 12,000 FEET WITH NO
SIGNIFICANT WEATHER AND/OR OBSTRUCTIONS TO VISIBILITY.

AZZ001>003-036-010300-
NORTHWEST ARIZONA

CITY           SKY/WX    TMP DP  RH WIND       PRES   REMARKS
BULLHEAD CITY  CLOUDY   109  46  12 S17       29.70S HX 105
KINGMAN        CLOUDY    89  49  25 SE24      29.99R
$$

AZZ004>008-015-016-018-010300-
NORTH CENTRAL ARIZONA

CITY           SKY/WX    TMP DP  RH WIND       PRES   REMARKS
GRAND CANYON   CLOUDY    67  52  58 CALM      30.27F
WILLIAMS       CLOUDY    61  54  77 E10       30.39R
PRESCOTT       MOCLDY    74  54  49 CALM      30.20S
FLAGSTAFF      LGT RAIN  57  53  86 W7        30.38R
PAYSON         DRIZZLE   72  54  53 NW12G21   30.22R
PAGE           LGT RAIN  76  57  51 S18G29    30.08R
$$

AZZ009>014-017-010300-
NORTHEAST ARIZONA

CITY           SKY/WX    TMP DP  RH WIND       PRES   REMARKS
WINSLOW        CLOUDY    77  48  35 W16       30.15R
SAINT JOHNS    LGT RAIN  67  60  78 E16       30.27R
WINDOW ROCK    MOCLDY    66  57  72 CALM      30.29R
SHOW LOW       LGT RAIN  72  45  37 NW14      30.29R
$$

AZZ023-010300-
GREATER PHOENIX AREA

CITY           SKY/WX    TMP DP  RH WIND       PRES   REMARKS
PHOENIX        MOCLDY   107  52  16 NW17      29.78R HX 105
BUCKEYE          N/A    102  57  22 CALM      29.79S HX 101
LUKE AFB       NOT AVBL
DEER VALLEY    PTCLDY   102  52  18 NW21G28   29.82R HX 100
SCOTTSDALE     PTCLDY   103  53  19 W3        29.83R HX 101
MESA-GATEWAY   MOCLDY   104  54  18 CALM      29.85R HX 102
CHANDLER       MOCLDY   104  54  18 S9        29.81R HX 102
$$

AZZ027-028-010300-
SOUTHWEST MARICOPA COUNTY AND PINAL COUNTY

CITY           SKY/WX    TMP DP  RH WIND       PRES   REMARKS
CASA GRANDE    CLOUDY   102  54  19 CALM      29.84S HX 100
GILA BEND      MOCLDY   102  59  24 SW16G24   29.79R HX 102
$$

AZZ503-504-507>509-010300-
SOUTHEAST ARIZONA

CITY           SKY/WX    TMP DP  RH WIND       PRES   REMARKS
TUCSON         MOCLDY    94  53  25 W6        29.96R
DAVIS-MONTHAN  CLOUDY    93  55  27 NW5       29.95R
RYAN FIELD       N/A     93  54  26 CALM      29.94R
NOGALES        MOCLDY    85  59  41 SE10G16   30.05R
SIERRA VISTA   MOCLDY    84  50  30 SW6       30.11S
SAFFORD        PTCLDY    92  51  24 W13       29.95R
$$

AZZ020-021-025-026-031-010300-
SOUTHWEST ARIZONA

CITY           SKY/WX    TMP DP  RH WIND       PRES   REMARKS
YUMA           MOCLDY   101  60  25 S13       29.75R HX 101
$$

CAZ031-033-041-043-047-048-061-010300-
SOUTHERN CALIFORNIA

CITY           SKY/WX    TMP DP  RH WIND       PRES   REMARKS
DOWNTOWN L.A.  CLEAR     76  60  57 SW6       29.84S
L.A. AIRPORT   PTCLDY    70  61  73 W12       29.86S
SAN DIEGO      PTCLDY    74  65  73 W10       29.89R
BURBANK        SUNNY     85  58  39 S8        29.84S
ONTARIO        PTCLDY    91  61  36 SW12      29.84S
RIVERSIDE      CLEAR     91  59  33 W10G18    29.84R
PALM SPRINGS   PTCLDY   108  54  16 E8        29.74S HX 106
EL CENTRO NAS  MOCLDY   102  68  33 SE13      29.69S HX 108
IMPERIAL       MOCLDY   103  67  31 SE16      29.69S HX 108
BLYTHE           N/A    N/A N/A N/A MISG      29.71S
NEEDLES        CLOUDY   110  44  11 SW13      29.73R HX 105
$$

NVZ020-UTZ003-010300-
SOUTHERN NEVADA-UTAH

CITY           SKY/WX    TMP DP  RH WIND       PRES   REMARKS
LAS VEGAS      MOCLDY   105  37   9 SW16G26   29.79S
SALT LAKE CITY MOCLDY    82  42  24 W9        30.10S
$$

NMZ009-TXZ055-010300-
NEW MEXICO-WEST TEXAS

CITY           SKY/WX    TMP DP  RH WIND       PRES   REMARKS
ALBUQUERQUE    LGT RAIN  68  57  68 NE5       30.22R
EL PASO        MOCLDY    84  58  40 E16       30.06R
$$


........................KEY........................
SKY/WX - SKY CONDITION/WEATHER
TMP    - TEMPERATURE IN FAHRENHEIT
DP     - DEW POINT IN FAHRENHEIT
RH     - RELATIVE HUMIDITY IN PERCENT
WIND   - DIRECTION AND SPEED IN MILES PER HOUR (MPH)
VRB    - VARIABLE WIND DIRECTION
PRES   - MEAN SEA LEVEL PRESSURE IN INCHES OF MERCURY
         F - FALLING PRESSURE   R - RISING PRESSURE
         S - STEADY PRESSURE
VSB    - VISIBILITY IN MILES
HX     - HEAT INDEX IN FAHRENHEIT
WCI    - WIND CHILL INDEX IN FAHRENHEIT
TC     - TEMPERATURE IN CELSIUS WHICH IS ALSO KNOWN AS
         TEMPERATURE IN CENTIGRADE
AFB    - AIR FORCE BASE
         LUKE AFB IS LUKE AIR FORCE BASE
         DAVIS-MONTHAN IS DAVIS-MONTHAN AIR FORCE BASE
NAS    - NAVAL AIR STATION
         EL CENTRO NAS IS EL CENTRO NAVAL AIR STATION
N/A    - NOT AVAILABLE


USA.gov is the U.S. government's official web portal to all federal, state and local government web resources and services.